www.pogodaiklimat.ru

Погода и климат >> Архив погоды >> Россия >> Ростовская область >> Морозовск


ПОГОДА в Морозовске

  • Прогноз погоды в Морозовске
  • Монитор погоды в Морозовске

АРХИВ ПОГОДЫ в Морозовске

Время (UTC), дата Ветер
(напр.,м/с)
 
Видим.   Явления Облачность Т
(С)
Тd
(С)
f
(%)
Тe
(С)
Тes
(С)
Комфортность P
(гПа)
Po
(гПа)
Тmin
(С)
Tmax
(С)
R
(мм)
R24
(мм)
S
(см)
18 19.05 С 1 20 км ясно +16.9 +8.5 58 +18 +18 1014.4 1003.8
21 19.05 В 2 20 км ясно +14.5 +5.4 54 +14 +14 1015.1 1004.4
00 20.05 СВ 1 20 км ясно +12.3 +3.6 55 +13 +13 1016.1 1005.3
03 20.05 СВ 2 20 км ясно +12.6 +5.2 61 +12 +13 1018.0 1007.1 +10.0
06 20.05 СВ 5 20 км 3/0
[Ci fib]
+19.3 +4.0 36 +19 +25 1018.8 1008.2
09 20.05 СВ 3 20 км 5/0
[Ci fib]
+21.6 +2.6 29 +22 +35 комфорт 1019.1 1008.5
12 20.05 СВ 4 20 км 5/0
[Ci fib]
+22.4 +0.2 23 +22 +29 комфорт 1018.8 1008.3
15 20.05 С 1 20 км 8/0
[Ci fib]
+22.0 +2.3 27 +22 +24 комфорт 1018.7 1008.2 +22.8
18 20.05 Ю 1 20 км 3/0
[Ci fib]
+11.0 +5.8 70 +11 +11 1019.8 1008.9
21 20.05 З 1 20 км 3/0
[Ci fib]
+8.6 +5.1 79 +8 +8 1019.9 1008.9
00 21.05 ЮЗ 2 20 км 5/0
[Ci fib]
+7.2 +3.8 79 +5 +5 1020.5 1009.4
03 21.05 штиль 0 20 км 3/0
[Ci fib]
+9.9 +6.4 79 +9 +11 1021.5 1010.5 +4.6
06 21.05 ЮЗ 2 20 км 3/0
[Ci fib]
+19.8 +4.2 36 +21 +31 комфорт 1021.4 1010.8
09 21.05 ЮЗ 1 20 км 5/1 1000 м
[Cu hum Ci fib]
+22.7 +3.4 28 +23 +39 комфорт 1021.2 1010.7
12 21.05 Ю 2 20 км 8/0
[Ci fib]
+24.0 +2.7 25 +23 +33 комфорт 1020.3 1009.8
15 21.05 ЮВ 3 20 км 8/0
[Cc]
+22.3 +3.9 30 +22 +24 комфорт 1019.2 1008.7 +24.3
18 21.05 В 2 20 км 6/0
[Ci fib]
+14.9 +6.2 56 +15 +15 1019.5 1008.7
21 21.05 В 2 20 км 9/0
[Ci fib]
+12.5 +4.6 59 +12 +12 1019.1 1008.2
00 22.05 В 2 20 км 9/0
[Ci fib]
+11.4 +5.1 65 +10 +10 1018.3 1007.4
03 22.05 ЮВ 4 20 км 10/0
[Ac trans Cs]
+13.9 +8.1 68 +13 +13 1018.3 1007.5 +10.9
06 22.05 ЮВ 5 20 км 5/0
[Ci fib]
+15.4 +11.0 75 +14 +19 1018.2 1007.4
09 22.05 ЮВ 8-14
{13}
20 км 9/0
[Cc]
+21.8 +4.0 31 +22 +25 комфорт 1015.8 1005.3
12 22.05 ЮВ 7-10
{14}
20 км 9/0
[Ac lent Ci]
+21.9 +3.1 29 +22 +24 комфорт 1014.2 1003.7
15 22.05 ЮВ 4
{11}
20 км 9/3 600 м
[Cb calv Ac lent Ci fib]
+21.3 +6.1 37 +22 +23 комфорт 1012.3 1001.8 +22.8
18 22.05 Ю 4 20 км слаб. ливневой дождь 10/8 600 м
[Cb calv Ac und]
+17.5 +12.4 72 +17 +17 1012.2 1001.6
21 22.05 Ю 2 20 км {ливн. осадки} 10/8 600 м
[Cb calv Ac und]
+15.1 +13.6 91 +15 +15 1011.3 1000.6
00 23.05 Ю 3 20 км {ливн. осадки} 9/6 600 м
[Cb calv Ac trans]
+14.0 +13.1 94 +13 +13 1011.0 1000.3
03 23.05 ЮЗ 3 20 км 9/5 600 м
[Cb calv Ac trans]
+15.0 +13.6 91 +14 +14 1010.0 999.4 +13.8 0.3
06 23.05 ЮЗ 3 20 км 9/9 600 м
[Cb calv]
+17.8 +13.1 74 +18 +19 1010.1 999.5
09 23.05 ЮЗ 4 20 км 8/8 600 м
[Cb calv]
+21.6 +12.2 55 +24 +26 комфорт 1008.2 997.8
12 23.05 Ю 4
{13}
20 км {гроза, ливн. осадки} 8/8 600 м
[Cb calv]
+19.7 +12.4 63 +21 +23 комфорт 1008.6 998.2
15 23.05 З 3 20 км в посл. час ливневой дождь 9/9 600 м
[Cb calv]
+17.7 +13.0 74 +18 +18 1007.7 997.2 +22.3 14
18 23.05 ЮЗ 1 20 км 4/4 600 м
[Sc]
+13.9 +12.0 88 +14 +14 1008.1 997.5
21 23.05 ЮЗ 3 20 км 6/0
[Ac trans]
+14.0 +12.9 93 +13 +13 1008.7 998.0
00 24.05 ЮЗ 2 20 км 3/0
[Ac trans]
+12.6 +11.7 94 +12 +12 1008.2 997.5
03 24.05 ЮЗ 2 20 км ясно +13.7 +12.8 94 +13 +14 1008.8 998.1 +11.4
06 24.05 З 4 20 км ясно +20.4 +14.0 67 +23 +30 комфорт 1008.6 998.2
09 24.05 З 4 20 км 8/8 600 м
[Cu med, cong]
+23.3 +12.8 52 +26 +29 жарко 1008.9 998.6
12 24.05 З 4 20 км 8/8 600 м
[Cu med, cong]
+24.7 +12.8 47 +27 +28 жарко 1008.8 998.5
15 24.05 З 3 20 км {ливн. осадки} 3/1 600 м
[Cb calv Ac lent Ci fib]
+24.7 +11.9 45 +26 +28 жарко 1008.6 998.3 +25.6 0.0
18 24.05 Ю 2 20 км {ливн. осадки} 4/0
[Ci fib]
+18.0 +12.5 70 +19 +19 1009.8 999.3
21 24.05 Ю 1 20 км ясно +15.0 +11.7 81 +16 +16 1010.5 999.8
00 25.05 В 1 20 км 4/0
[Ci fib]
+12.5 +11.4 93 +12 +12 1010.6 999.8
03 25.05 В 2 20 км 9/0
[Ac trans Ci fib]
+15.3 +12.7 84 +15 +16 1010.9 1000.3 +11.8
06 25.05 В 5 20 км 6/0
[Ac cast Ci fib]
+21.5 +14.8 66 +25 +29 комфорт 1010.3 999.9
09 25.05 ЮВ 5
{10}
20 км 9/6 600 м
[Cu med, cong Ac trans Ci sp]
+25.0 +13.8 50 +27 +30 жарко 1009.2 998.9
12 25.05 ЮВ 6
{11}
20 км 9/8 600 м
[Cb calv Ci]
+25.8 +12.4 43 +27 +28 жарко 1007.2 997.0
15 25.05 ЮЗ 7-13
{18}
20 км слаб. ливневой дождь 10/10 300 м
[Cb calv]
+17.9 +16.0 89 +17 +17 1008.1 997.6 +26.3 0.8
18 25.05 В 1
{13}
20 км в посл. час ливневой дождь 10/8 600 м
[Cb calv Ac und]
+16.7 +15.1 90 +18 +18 1007.2 996.7
21 25.05 ЮВ 3 20 км слаб. ливневой дождь 10/8 300 м
[Cb calv Ac und]
+16.2 +15.4 95 +16 +16 1006.5 995.9
00 26.05 Ю 2
{11}
10 км слаб. ливневой дождь 10/6 300 м
[Cb calv Ac und]
+15.2 +14.6 96 +15 +15 1005.7 995.1
03 26.05 Ю 5 4000 м слаб. ливневой дождь 10/9 300 м
[Cb calv Ac und]
+15.1 +14.4 96 +14 +14 1005.8 995.2 +14.7 14
06 26.05 ЮЗ 6-12
{12}
20 км в посл. час ливневой дождь 10/10 300 м
[Cb calv]
+17.3 +14.9 86 +16 +16 1006.7 996.2
09 26.05 ЮЗ 8-14
{15}
20 км {ливн. осадки} 9/8 600 м
[Cb calv Ac trans Ci fib]
+19.4 +14.8 75 +20 +21 1007.1 996.7
12 26.05 ЮЗ 6-13
{17}
20 км {ливн. осадки} 9/5 600 м
[Cu hum Ac trans Ci fib]
+20.7 +15.1 70 +23 +25 комфорт 1007.0 996.6
15 26.05 ЮЗ 3
{13}
20 км 9/4 600 м
[Cb calv Ac trans Ci fib]
+19.5 +15.0 75 +22 +22 комфорт 1008.0 997.5 +20.8 4

 

Местоположение метеостанции Морозовск (Ростовская область, Россия): широта 48.35 долгота 41.87 высота над уровнем моря 90 м.

В архиве по умолчанию представлена погода в Морозовске за последнюю неделю. Архивные данные за месяц целиком и за предыдущие месяцы, начиная с января 2011 года, Вы можете получить, выбрав интересующий диапазон дат из раскрывающегося списка и нажав кнопку "Ввод!".


*Определитесь, кто Вы:
робот инопланетянин человек

Внимание! Время в таблицах - всемирное. Для получения местного времени необходимо прибавить поправку, которая равна 3 ч.

Смотрите также архив погоды в соседних городах и на ближайших метеорологических станциях:

Погода в Белой Калитве (Ростовская область, Россия) (79 км)
Погода в Цимлянске (Ростовская область, Россия) (82 км)
Погода в Нижнем Чире (Волгоградская область, Россия) (92 км)
Погода в Боковской (Ростовская область, Россия) (97 км)
Погода в Константиновске (Ростовская область, Россия) (103 км)
Погода в Каменск-Шахтинском (Ростовская область, Россия) (116 км)
Погода в Семикаракорске (Ростовская область, Россия) (121 км)
Погода в Калаче-на-Дону (Волгоградская область, Россия) (124 км)
Погода в Котельниково (Волгоградская область, Россия) (124 км)
Погода в Миллерово (Ростовская область, Россия) (127 км)

Пояснения к столбцам:

Ветер - указаны скорость ветра в м/с - средняя за 10 мин, порывы в срок и между сроками (в фигурных скобках) и направление, откуда дует ветер: С - северный, СВ - северо-восточный, В - восточный, ЮВ - юго-восточный, Ю - южный, ЮЗ - юго-западный, З - западный, СЗ - северо-западный.
Видимость - горизонтальная дальность видимости в метрах или километрах. При видимости от 1 до 10 км при отсутствии осадков обычно наблюдается дымка, при ухудшении видимости до 1 км и менее - туман. В сухую погоду видимость может ухудшаться дымом, пылью или мглою.
Явления - указаны атмосферные явления, наблюдавшиеся в срок или в последний час перед сроком; фигурными скобками обозначены явления, наблюдавшиеся между сроками (за 1-3 часа до срока); квадратными скобками обозначены град или гололедные отложения с указанием их диаметра в мм.
Облачность - указаны через наклонную черту общая и нижняя облачность в баллах и высота нижней границы облаков в метрах; квадратными скобками обозначены формы облаков: Ci - перистые, Cs - перисто-слоистые, Cc - перисто-кучевые, Ac - высококучевые, As - высокослоистые, Sc - слоисто-кучевые, Ns - слоисто-дождевые, Cu - кучевые, Cb - кучево-дождевые. Подробнее классификацию облаков см. в Атласе облаков (PDF).
T - Температура воздуха - температура, измеренная на высоте 2 м над землей.
Td - Температура точки росы - температура, при понижении до которой содержащийся в воздухе водяной пар достигнет насыщения.
f - Относительная влажность воздуха - влажноcть воздуха, измеренная на высоте 2 м над землей.
Te - Эффективная температура - температура, которую ощущает одетый по сезону человек в тени. Характеристика душности погоды. При расчете учитывается влияние влажности воздуха и скорости ветра на теплоощущения человека.
Tes - Эффективная температура на солнце - температура, которую ощущает человек, с поправкой на солнечный нагрев. Характеристика знойности погоды. Зависит от высоты солнца над горизонтом, облачности и скорости ветра. Ночью, в пасмурную погоду, а также при ветре 12 м/с и более поправка равна нулю.
P - Атмосферное давление - приведенное к уровню моря атмосферное давление.
Po - Атмосферное давление - измеренное на уровне метеостанции атмосферное давление.
Tmin - Минимальная температура - минимум температуры воздуха на высоте 2 м над землей.
Tmax - Максимальная температура - максимум температуры воздуха на высоте 2 м над землей.
R - Количество осадков - Количество выпавших осадков за период времени, мм. При наведении курсора мыши на число - период времени, за который выпало указанное количество осадков.
R24 - Количество осадков - Количество выпавших осадков за 24 часа, мм.
S - Снежный покров - Высота снежного покрова, см. При наведении курсора мыши на число - состояние снежного покрова и степень покрытия местности в баллах.